星链-5386 (STARLINK-5386 )

导读

STARLINK-5386是美国SpaceX公司星链(Starlink)低轨卫星互联网星座的一员,于2022年12月28日发射升空,归属星链第二代卫星序列。星链计划旨在通过近地轨道卫星组网,为全球提供高速低延迟宽带互联网服务,STARLINK-5386承担着覆盖补网、增强网络容量的任务,助力星链实现全球范围的连续互联网接入服务。

Basic Information
目录编号:
54834
目录名称:
STARLINK-5386
国际标识:
2022-177Q
轨道中心:
EARTH
卫星名称:
星链-5386
卫星全名:
星链-5386 (STARLINK-5386 )
卫星状态:
在轨 (已飞行1354 天)
发射日期:
2022-12-28 UTC
国别 :
美国 (US)
星等 :
--
This satellite is enrolled in the Space Conjunction Data Service (SCDS) and the current flight risk assessment level is: High Risk
Orbit Information
数据来源 国际轨道数据 AOE轨道数据
星历时间 2026-09-12T11:20:01+0800
9小时前
查看轨道信息
2026-09-10T22:00:00+0800
1天前
查看轨道信息
半长轴 6861.192km 6861.197km
偏心率 0.0001874 0.0002656
轨道倾角 43.005° 43.003°
近地点辐角 255.496° 236.931°
升交点赤经 163.492° 172.289°
平近点角 104.569° 198.600°
近地点 481.769km 481.237km
远地点 484.341km 484.883km
周期 94.267分钟 94.267分钟
每日圈数 15.275781 15.275765
Detailed Information
固有亮度:
5
最大亮度:
2.5
卫星平台:
Starlink v1.5
覆盖范围:
全球
运营商:
太空探索技术公司
运营商所在国:
美国
制造商(研发单位):
太空探索技术公司
制造商所在国:
美国
使用方式:
暂无
Satellite Introduction
星链(Starlink)计划是由太空探索技术公司(SpaceX)提出的一个巨型低轨卫星互联网星座项目,计划在2019年至2024年间在太空搭建由约1.2万颗卫星组成的“星链”网络,其中1584颗将部署在地球上空550千米处的近地轨道,并从2020年开始工作。该卫星仍在工作。
2D Orbit Map
3D Orbit Map
Orbit Altitude Analysis Chart
Orbit Inclination Analysis Chart
Orbit Comprehensive Analysis Chart
View Comprehensive Chart
Conjunction Data List
Event ID Objects TCA Miss Dist (km) Collision Risk Probability Collision Risk Index (CRI) Action
CDM_260913-010904-380405-483425
SUOMI100 (43804)
2026-09-13T
01:09:39+0000
1.342 km
极远距离
9.441495E-6 低风险 0.55
CDM_260914-234105-483406-648621
2026-09-14T
23:41:41+0000
2.028 km
极远距离
2.152731E-6 低风险 0.42
Miss Distance Evolution Trend with All Objects
Collision Probability Evolution Trend with All Objects